Theta_e
295 295 295 294 294 293 293 293 292 292 292 291 291 291 291 291 291 291 291 291 291 291 291 291 291 291 291 291 291 291 291 291 292 292 292 292 292 292 293 293 293 294
295 295 295 295 295 294 294 294 293 293 293 292 292 292 291 291 291 291 291 291 291 291 291 291 291 291 291 291 291 291 291 291 291 291 292 292 292 293 293 293 293 293
296 295 295 295 295 295 295 295 294 294 294 293 293 293 292 292 292 292 291 291 291 291 291 291 291 291 291 291 291 291 291 291 291 292 292 292 292 293 293 293 293 293
296 296 295 295 295 295 295 295 295 295 295 295 294 294 294 293 293 292 292 292 291 291 291 291 291 291 291 291 291 291 291 291 292 292 292 292 293 293 293 293 293 293
296 296 295 296 295 295 295 295 295 295 295 295 295 295 294 294 294 294 293 293 292 292 292 291 291 291 291 291 291 291 291 291 291 292 292 292 292 293 293 293 293 293
297 296 296 296 295 295 295 295 295 295 294 294 294 294 294 294 294 294 294 294 293 293 292 292 292 291 291 291 291 291 291 291 291 291 292 292 292 292 292 292 292 292
298 297 297 296 296 295 295 295 295 295 295 294 294 294 294 294 294 294 294 294 294 293 293 293 292 292 292 292 291 291 291 291 291 291 291 291 291 292 292 292 292 292
298 298 298 297 297 296 296 295 295 295 295 295 294 294 294 294 293 293 293 293 293 293 293 293 293 292 292 292 292 291 291 291 291 291 291 291 291 291 291 291 291 291
299 298 298 298 298 297 297 296 296 295 295 295 295 295 295 294 294 294 293 293 293 293 293 293 293 293 292 292 292 291 291 291 291 291 290 290 290 290 290 290 290 290
299 299 299 298 298 298 298 297 297 296 295 295 295 295 295 295 295 295 294 294 294 294 293 293 293 292 292 292 292 292 291 291 291 291 291 290 290 290 290 290 289 290
299 299 299 299 299 298 298 298 297 297 297 296 296 296 295 295 295 295 295 295 295 295 294 294 293 293 292 292 292 292 292 291 291 291 291 291 290 290 290 290 289 289
299 299 299 299 299 299 298 298 298 298 297 297 297 296 296 296 296 295 295 295 295 295 295 294 294 294 293 293 293 292 292 292 292 291 291 291 291 290 290 290 290 290
300 299 299 299 299 299 299 298 298 298 298 298 297 297 297 297 297 296 296 295 295 295 295 295 295 294 294 294 293 293 293 293 292 292 292 292 291 291 291 290 290 290
300 300 299 299 299 299 299 299 299 298 298 298 298 297 297 297 297 297 296 296 295 295 295 295 295 295 295 295 294 294 293 293 293 293 292 292 292 292 291 291 291 291
300 300 300 299 299 299 299 299 299 299 298 298 298 298 298 297 297 297 297 297 297 296 296 295 295 295 295 295 295 294 294 294 293 293 293 293 293 292 292 292 292 292
300 300 300 300 300 299 299 299 299 299 298 298 298 298 298 298 297 297 297 297 297 297 297 296 296 296 296 295 295 294 294 294 294 294 293 293 293 293 293 293 293 293
300 300 300 300 300 300 300 299 299 299 299 299 298 298 298 298 298 298 297 297 297 297 297 297 297 297 297 296 295 295 294 294 294 294 294 293 293 293 294 294 294 294
301 300 300 301 301 300 300 300 299 299 299 299 299 299 298 298 298 298 298 298 297 297 297 297 297 297 297 297 297 296 296 295 294 294 294 294 294 294 294 294 294 294
301 300 300 301 301 301 300 300 300 299 299 299 299 299 298 298 298 298 298 298 298 298 298 298 298 297 297 297 297 297 296 296 296 296 295 295 295 294 294 294 294 294
301 301 301 301 301 301 300 300 300 300 299 299 299 299 298 298 298 298 298 298 298 298 298 298 298 298 297 297 297 297 297 296 296 296 296 296 296 296 296 295 295 295
302 301 301 301 301 301 300 300 300 300 300 299 299 299 299 298 298 298 298 298 298 298 298 298 298 298 297 297 297 297 297 296 296 296 296 296 296 296 296 296 296 296
302 302 301 301 301 301 300 300 300 300 300 300 299 299 299 299 298 298 298 298 298 298 298 298 298 298 298 297 297 297 297 296 296 296 296 296 297 296 296 296 296 296
302 302 302 301 301 301 301 301 301 300 300 300 299 299 299 299 299 299 298 298 298 298 298 298 298 298 298 297 297 297 297 296 296 296 296 296 296 296 296 296 296 296
302 302 302 302 301 301 301 301 301 300 300 300 299 299 299 299 299 299 299 298 298 298 298 298 298 298 298 297 297 297 297 296 296 296 296 296 296 296 296 296 296 296
302 302 302 302 301 301 301 301 301 300 300 300 299 299 299 299 299 299 299 299 298 298 298 298 299 298 298 298 297 297 297 296 296 296 296 296 296 296 296 296 296 296
302 302 301 301 301 301 301 301 301 300 300 300 299 299 299 299 299 299 299 299 298 298 298 298 299 299 298 298 298 298 297 297 296 296 296 296 296 296 296 296 296 295
Wind_Speed
4 3 3 4 5 4 4 4 4 3 3 3 2 1 1 1 1 1 1 1 1 1 1 2 2 2 3 3 3 3 2 2 2 2 2 3 2 3 3 3 3 3
8 6 5 4 4 4 4 4 3 3 3 3 3 3 2 2 1 1 1 1 1 1 1 1 1 0 1 1 1 1 1 1 1 1 1 1 1 1 2 2 2 3
11 10 9 8 7 6 5 5 4 4 3 3 4 4 4 4 3 3 2 2 3 3 3 3 3 3 2 2 2 1 2 1 2 2 1 1 1 1 1 1 1 2
11 11 12 12 11 10 9 8 7 6 5 5 5 5 5 5 5 4 4 4 4 4 4 4 4 4 4 4 4 4 4 4 4 4 3 3 3 3 3 3 3 3
11 11 12 13 13 13 13 12 11 10 9 8 7 7 7 6 6 6 5 5 5 5 5 6 6 6 6 6 5 5 5 5 5 5 5 5 5 5 5 5 5 5
11 11 12 13 14 14 15 15 15 14 13 12 11 10 10 9 9 8 8 7 7 7 7 7 7 7 7 7 7 7 7 6 6 6 6 6 6 6 6 7 7 7
12 13 13 14 14 15 14 15 15 16 17 16 16 15 13 13 12 11 11 11 10 10 10 10 9 9 9 8 8 8 8 8 8 8 8 8 8 8 9 9 10 10
14 14 14 15 16 16 15 15 14 15 17 18 19 19 18 17 17 16 15 15 14 14 13 13 12 12 11 11 10 10 10 10 10 10 10 10 10 10 11 11 12 12
16 15 15 16 16 17 17 16 15 15 16 17 18 19 20 21 20 20 19 19 19 18 17 17 16 15 15 14 13 13 13 12 12 12 12 12 12 12 12 13 14 15
18 17 17 17 17 17 18 18 18 17 17 17 18 18 19 20 21 22 22 23 23 23 22 21 20 20 19 18 17 17 16 16 15 16 15 15 15 15 15 16 17 17
18 18 18 18 18 18 18 18 20 20 20 20 19 19 19 19 20 21 22 23 24 24 24 24 24 23 23 22 22 21 20 20 20 20 19 19 19 18 18 18 19 20
20 20 19 19 19 19 19 19 20 21 21 22 22 21 21 21 21 21 21 22 22 23 24 24 25 25 26 25 25 25 25 25 24 24 23 23 23 23 22 22 22 23
21 21 20 20 20 20 20 21 21 20 21 22 23 23 23 22 22 22 22 22 22 22 22 23 24 25 26 26 26 26 27 27 27 27 27 27 27 27 27 26 26 27
22 21 22 22 22 21 22 22 22 22 21 22 23 24 24 24 24 24 24 24 24 24 23 24 24 25 25 25 26 26 27 28 28 29 29 29 30 30 30 30 30 31
24 23 22 23 23 23 23 23 23 23 23 23 23 24 24 24 25 25 25 25 25 25 25 26 26 26 25 24 25 26 26 27 28 29 29 30 30 31 31 32 32 32
28 26 25 24 24 24 24 24 24 25 25 25 25 25 25 25 26 26 27 26 26 26 26 27 27 27 26 25 26 26 27 27 28 29 29 30 31 31 32 32 32 32
30 29 28 26 25 25 25 25 25 26 26 27 27 27 26 26 26 27 27 27 27 27 27 28 28 26 25 26 27 27 28 29 29 30 30 31 32 32 32 32 32 32
32 32 31 29 27 27 26 26 26 27 27 28 28 29 28 28 28 28 28 28 28 28 28 28 28 26 25 26 27 27 28 29 30 31 32 32 33 34 34 34 34 34
33 33 34 32 30 28 27 27 28 29 28 28 28 29 29 30 30 29 29 28 28 29 28 28 28 27 26 26 27 28 28 29 30 32 32 33 34 35 35 35 35 36
33 34 35 35 33 31 29 29 29 29 29 29 29 29 30 31 31 30 30 29 29 29 29 29 28 27 27 27 27 29 29 30 31 32 33 34 34 35 36 36 36 36
33 34 35 35 35 33 32 31 31 30 30 30 29 29 30 31 31 31 31 30 30 29 29 29 29 28 27 27 28 29 30 31 33 34 34 35 35 36 36 36 36 36
32 33 34 34 35 34 33 32 32 31 31 30 30 30 31 31 31 31 31 31 30 30 30 30 29 28 28 28 28 29 30 32 34 34 34 35 35 35 36 36 36 36
33 32 33 33 34 34 34 33 32 32 31 30 30 31 31 31 31 31 30 30 30 31 31 31 29 28 28 28 28 29 30 32 34 34 35 35 36 35 35 36 36 36
34 33 33 33 33 34 34 33 32 31 31 30 30 31 30 30 30 31 31 31 31 30 30 31 30 28 27 28 27 28 30 32 33 34 35 36 36 36 35 35 36 35
36 35 34 33 33 33 33 33 32 31 31 31 31 31 30 29 29 30 31 31 30 30 29 30 30 29 27 27 27 28 29 31 33 34 35 36 36 36 35 35 35 35
36 35 34 34 33 33 32 32 32 32 32 32 32 31 30 30 29 30 32 31 30 29 29 30 31 30 28 27 28 28 29 31 32 34 36 36 36 36 36 36 36 35
Wind_Direction
315 337 346 348 350 351 357 359 359 358 357 0 8 24 54 77 62 70 86 86 88 91 89 93 97 100 99 103 106 103 101 101 109 123 123 127 144 149 158 171 176 172
286 288 293 304 315 324 330 336 345 347 346 342 335 332 330 316 287 264 257 261 275 291 295 314 332 12 44 40 66 66 60 60 55 67 85 106 138 143 150 156 157 157
285 280 276 276 277 282 291 299 309 316 320 320 320 321 318 316 311 297 284 269 258 258 256 253 254 254 254 262 273 289 290 297 296 292 292 282 266 254 233 208 194 177
293 285 279 275 271 267 267 271 275 279 285 288 291 296 297 300 303 300 298 290 278 269 261 254 248 246 243 243 244 244 244 247 248 247 248 247 243 241 236 231 231 230
304 296 289 282 277 272 267 265 264 263 264 266 268 271 274 277 280 283 286 284 283 279 273 269 263 257 253 249 247 244 242 242 240 239 242 239 236 234 233 231 231 231
307 300 296 291 286 282 277 270 266 265 263 261 261 261 262 265 265 266 268 268 270 271 271 270 267 265 263 258 255 252 250 250 248 245 245 243 242 240 238 238 238 237
308 301 298 296 294 291 289 283 275 271 268 265 265 263 261 262 262 262 264 263 262 263 264 265 264 264 263 261 260 258 256 254 252 249 247 245 244 242 242 243 243 243
309 305 299 296 295 294 294 293 286 279 273 269 268 267 265 265 264 264 265 265 264 264 263 263 263 263 264 263 262 262 261 261 258 256 254 252 250 249 247 247 247 247
307 306 303 298 295 294 293 293 291 284 278 274 273 270 268 268 266 266 266 266 266 266 266 265 265 265 265 264 264 264 265 265 264 263 262 261 260 258 256 254 254 253
304 303 302 300 298 294 291 289 288 285 281 280 279 277 274 273 271 269 268 268 268 269 268 268 267 266 266 266 266 266 266 266 266 266 265 265 265 264 262 261 260 260
302 301 299 298 296 294 290 287 285 284 283 283 283 283 282 280 277 275 273 273 273 273 272 271 270 268 267 267 267 267 266 266 266 266 266 266 266 266 265 264 264 265
297 297 298 296 292 289 289 287 284 283 282 283 283 283 282 281 281 280 279 279 279 278 277 276 274 272 270 269 269 268 267 266 266 266 266 266 267 266 266 266 266 267
298 294 294 294 291 287 285 284 285 284 282 281 281 280 280 280 280 280 280 280 279 279 279 278 277 276 274 274 273 271 271 270 269 268 268 268 268 268 267 267 267 267
302 296 290 289 290 289 286 284 284 283 282 281 278 278 278 279 279 278 278 277 277 277 278 278 278 277 278 278 278 276 275 274 273 272 272 272 272 271 269 269 268 268
300 298 292 289 287 288 288 286 283 281 280 279 278 278 278 278 277 277 276 276 276 277 277 276 276 277 278 280 280 279 278 278 277 276 274 274 274 273 272 271 271 270
296 296 294 290 287 286 286 286 284 282 279 278 278 277 276 276 276 276 276 277 277 278 277 276 276 276 278 279 278 278 278 277 277 276 276 275 275 274 274 274 273 273
293 295 294 292 289 286 284 284 283 282 279 278 277 277 276 276 276 276 277 277 278 278 278 277 278 279 280 279 278 277 277 276 276 276 275 275 274 274 274 275 275 275
292 293 293 293 291 288 285 284 282 280 278 277 276 275 276 275 274 275 276 276 277 278 278 279 281 282 282 280 279 279 277 276 276 276 275 275 275 274 274 275 275 275
291 291 292 293 294 292 287 283 280 278 278 277 276 275 273 272 273 274 275 276 276 277 279 280 281 282 282 281 281 281 280 278 277 277 277 277 276 276 276 276 276 276
291 290 291 292 293 293 289 284 279 278 277 277 276 275 273 271 272 273 274 275 275 276 278 278 279 280 281 281 280 280 280 279 278 278 278 278 279 279 278 278 277 277
292 290 290 291 291 292 290 285 281 278 277 276 275 275 274 273 272 271 272 275 276 276 277 276 277 278 278 278 277 277 277 277 276 277 277 278 279 280 280 280 279 279
293 291 289 289 289 288 287 285 282 280 278 277 276 274 273 273 273 272 273 275 276 275 275 275 277 278 277 277 276 276 275 274 274 275 276 277 278 278 279 280 280 279
290 288 286 285 284 284 285 285 284 282 280 279 277 275 274 273 274 274 274 274 273 274 274 276 279 279 278 278 277 276 275 274 274 275 276 277 277 278 278 279 279 279
287 285 285 284 283 283 284 285 285 283 281 280 278 277 275 274 274 274 273 273 273 274 275 277 279 280 279 279 278 277 275 274 274 275 275 276 277 277 278 278 279 279
286 285 284 283 283 284 284 285 284 283 281 279 278 277 276 276 275 275 274 274 274 275 276 277 278 279 279 278 279 277 275 275 274 274 275 276 277 278 279 279 279 279
284 284 283 282 283 284 284 283 282 281 280 278 278 278 277 276 276 275 275 275 275 276 277 277 278 278 277 277 277 277 275 274 273 273 274 276 277 278 278 278 278 278